EW6223 Weather Reports


time (UTC)temp
F
wind
direction
speed
knots
gust
knots
rain 1hr
in
rain 24hr
in
rain mn
in
humidity
%
barometer
mb
20260510024553 81 273 2.6 5.2 0.00 0.00 0.00 36 852.3
20260510023052 82 299 2.6 6.1 0.00 0.00 0.00 36 852.3
20260510021641 82 279 2.6 4.3 0.00 0.00 0.00 35 852.3
20260510020057 83 241 2.6 6.1 0.00 0.00 0.00 35 852.3
20260510014556 85 275 3.5 6.1 0.00 0.00 0.00 31 852.3
20260510013059 87 264 1.7 6.1 0.00 0.00 0.00 31 852.3
20260510011548 88 256 3.5 5.2 0.00 0.00 0.00 29 852.3
20260510010055 90 321 2.6 6.1 0.00 0.00 0.00 27 868.7
20260510004546 90 282 3.5 7.8 0.00 0.00 0.00 26 868.7
20260510003045 90 306 3.5 7.8 0.00 0.00 0.00 27 888.7
20260510001545 90 315 3.5 7.8 0.00 0.00 0.00 27 888.7
20260510000043 91 300 4.3 7.8 0.00 0.00 0.00 27 888.7
20260509234512 91 297 4.3 8.7 0.00 0.00 0.00 27 913.4
20260509233011 91 317 3.5 8.7 0.00 0.00 0.00 29 913.4
20260509231509 91 300 4.3 9.6 0.00 0.00 0.00 28 913.4
20260509230021 92 248 4.3 8.7 0.00 0.00 0.00 26 970.5
20260509224507 94 273 3.5 7.8 0.00 0.00 0.00 25 970.5
20260509223008 93 191 2.6 7.8 0.00 0.00 0.00 24 970.5
20260509221507 93 264 3.5 8.7 0.00 0.00 0.00 24 970.5
20260509220006 93 247 2.6 7.8 0.00 0.00 0.00 25 981.3
20260509214506 94 262 2.6 9.6 0.00 0.00 0.00 24 984.5
20260509214504 94 285 2.6 9.6 0.00 0.00 0.00 24 984.5
20260509213005 95 252 4.3 7.8 0.00 0.00 0.00 23 994.8
20260509211503 95 260 3.5 7.8 0.00 0.00 0.00 22 994.8
20260509210039 95 237 2.6 6.1 0.00 0.00 0.00 24 994.8
20260509204532 94 254 2.6 7.8 0.00 0.00 0.00 23 986.5
20260509203032 94 238 3.5 7.0 0.00 0.00 0.00 24 994.2
20260509201531 95 311 2.6 7.8 0.00 0.00 0.00 24 998.5
20260509200029 95 315 2.6 7.0 0.00 0.00 0.00 26 999.0
20260509194542 95 273 2.6 7.0 0.00 0.00 0.00 27 1001.9
20260509193058 96 282 2.6 6.1 0.00 0.00 0.00 22 997.5
20260509191607 96 291 2.6 6.1 0.00 0.00 0.00 21 996.1
20260509190054 95 239 2.6 6.1 0.00 0.00 0.00 21 999.8
20260509184600 95 253 2.6 6.1 0.00 0.00 0.00 21 998.6
20260509183054 94 227 2.6 6.1 0.00 0.00 0.00 23 1001.1
20260509181552 94 290 2.6 7.8 0.00 0.00 0.00 21 1001.4
20260509180053 94 281 1.7 7.8 0.00 0.00 0.00 19 998.6
20260509174540 94 238 2.6 6.1 0.00 0.00 0.00 24 1002.0
20260509173051 93 223 1.7 4.3 0.00 0.00 0.00 22 998.9
20260509171538 92 260 1.7 4.3 0.00 0.00 0.00 25 1000.5
20260509170027 90 225 1.7 4.3 0.00 0.00 0.00 32 1002.8
20260509164523 89 214 1.7 4.3 0.00 0.00 0.00 37 1002.7
20260509163019 88 223 1.7 3.5 0.00 0.00 0.00 40 1003.0
20260509161515 87 256 0.9 3.5 0.00 0.00 0.00 36 1002.5
20260509160009 86 212 1.7 3.5 0.00 0.00 0.00 38 1002.5
20260509154505 86 195 0.9 2.6 0.00 0.00 0.00 38 1002.8
20260509153000 86 219 0.9 2.6 0.00 0.00 0.00 33 1002.9
20260509151556 85 251 1.7 3.5 0.00 0.00 0.00 26 1003.4
20260509150022 83 248 0.9 4.3 0.00 0.00 0.00 29 1004.1
20260509144517 81 261 0.0 2.6 0.00 0.00 0.00 35 1003.3
20260509143012 80 312 0.9 2.6 0.00 0.00 0.00 40 1004.2
20260509141507 79 2 0.0 1.7 0.00 0.00 0.00 42 1004.1
20260509140004 78 4 0.0 0.0 0.00 0.00 0.00 44 1004.0
20260509134558 78 5 0.0 0.0 0.00 0.00 0.00 46 1004.0
20260509133053 0 0.0 0.0 0.00 0.00 0.00 1003.8
20260509131549 0 0.0 0.0 0.00 0.00 0.00 1003.5
20260509130044 0 0.0 0.0 0.00 0.00 0.00 1003.2
20260509124544 0 0.0 0.0 0.00 0.00 0.00 1003.1
20260509123034 0 0.0 0.0 0.00 0.00 0.00 1002.9
20260509121530 0 0.0 0.0 0.00 0.00 0.00 1002.7
20260509120027 0 0.0 0.0 0.00 0.00 0.00 1002.5
20260509114521 0 0.0 0.0 0.00 0.00 0.00 1002.2
20260509113014 0 0.0 0.0 0.00 0.00 0.00 1002.2
20260509111510 0 0.0 0.0 0.00 0.00 0.00 1002.3
20260509110005 0 0.0 0.0 0.00 0.00 0.00 1001.1
20260509104502 0 0.0 0.0 0.00 0.00 0.00 1002.3
20260509103107 0 0.0 0.0 0.00 0.00 0.00 1001.5
20260509101523 0 0.0 0.0 0.00 0.00 0.00 1000.1
20260509100018 0 0.0 0.0 0.00 0.00 0.00 1001.0
20260509094515 0 0.0 0.0 0.00 0.00 0.00 1001.2
20260509093008 0 0.0 0.0 0.00 0.00 0.00 1000.0
20260509091505 0 0.0 0.0 0.00 0.00 0.00 999.9
20260509090108 0 0.0 0.0 0.00 0.00 0.00 1000.1
20260509084601 0 0.0 0.0 0.00 0.00 0.00 1000.2
20260509083103 0 0.0 0.0 0.00 0.00 0.00 1000.5
20260509081544 0 0.0 0.0 0.00 0.00 0.00 996.2
20260509080047 0 0.0 0.0 0.00 0.00 0.00 998.5
20260509074543 0 0.0 0.0 0.00 0.00 0.00 998.5
20260509073035 0 0.0 0.0 0.00 0.00 0.00 996.5
20260509071524 0 0.0 0.0 0.00 0.00 0.00 997.1
20260509070021 0 0.0 0.0 0.00 0.00 0.00 997.1
20260509064515 0 0.0 0.0 0.00 0.00 0.00 999.0
20260509063021 0 0.0 0.0 0.00 0.00 0.00 991.9
20260509061505 0 0.0 0.0 0.00 0.00 0.00 997.6
20260509060117 0 0.0 0.0 0.00 0.00 0.00 997.3
20260509054554 0 0.0 0.0 0.00 0.00 0.00 994.0
20260509053102 0 0.0 0.0 0.00 0.00 0.00 997.7
20260509051548 0 0.0 0.0 0.00 0.00 0.00 995.8
20260509050041 0 0.0 0.0 0.00 0.00 0.00 994.5
20260509044506 0 0.0 0.0 0.00 0.00 0.00 996.4
20260509043002 0 0.0 0.0 0.00 0.00 0.00 994.0
20260509041556 0 0.0 0.0 0.00 0.00 0.00 991.4
20260509040105 0 0.0 0.0 0.00 0.00 0.00 987.6
20260509034547 0 0.0 0.0 0.00 0.00 0.00 987.6
20260509033106 0 0.0 0.0 0.00 0.00 0.00 987.2
20260509031536 0 0.0 0.0 0.00 0.00 0.00 987.2
20260509030032 0 0.0 0.0 0.00 0.00 0.00 963.6